[[{"header":{"parameterUnit":"m.s-1","parameterCategory":1,"la1":30.2992,"la2":30.254,"lo1":-89.0895,"lo2":-89.0443,"dy":0.0025,"dx":0.0025,"nx":19,"ny":19,"refTime":"2026-03-16T03:00:00:Z","depth":0,"parameterNumber":2,"parameterNumberName":"U-component_of_WINDS"},"data":[0,0,0,0.5792,0.5793,0.5823,0.5823,0.5856,0.5857,0,0,0,0,0,0,0,0,0,0,0,0.578,0.578,0.5792,0.5793,0.5823,0.5823,0.5856,0.5857,0,0,0,0,0,0,0,0,0,0,0,0.578,0.578,0.578,0.5793,0.5823,0.5823,0.5856,0.5836,0,0,0,0,0,0,0,0,0,0,0.5807,0.5792,0.578,0.578,0.5793,0.5823,0.5823,0.5835,0.5837,0.5841,0,0.5842,0,0.585,0.5859,0.5859,0,0,0,0.5796,0.579,0.5802,0.578,0.5793,0.5823,0.581,0.5836,0.5838,0.5843,0.5843,0.5844,0.585,0.5859,0.5859,0.5869,0.5869,0,0,0.5794,0.5783,0.58,0.5803,0.5797,0.5809,0.5811,0.5838,0.5836,0.5843,0.5845,0.5851,0.5859,0.5859,0.5869,0.5869,0,0,0,0.5788,0.5782,0.5793,0.5801,0.5807,0.581,0.5812,0.5835,0.584,0.5845,0.5851,0.5859,0.5859,0.5869,0.5869,0.5854,0,0,0,0.5787,0.5778,0.5792,0.5786,0.5807,0.5821,0.5809,0.5838,0.5841,0.5851,0.5859,0.586,0.5869,0.5869,0.5854,0.5848,0,0,0,0.5779,0.5777,0.578,0.5785,0.5797,0.5821,0.5827,0.5839,0.5845,0.5859,0.586,0.5869,0.5869,0.5855,0.5849,0.5848,0,0,0,0.5768,0.5766,0.578,0.5781,0.5797,0.5811,0.5827,0.5839,0.5849,0.5859,0.5869,0.5869,0.5855,0.585,0.5848,0.5844,0.5841,0,0,0.576,0.5765,0.5766,0.5779,0.5788,0.5808,0.5815,0.5835,0.5847,0.5861,0.5861,0.5854,0.5849,0.5848,0.583,0.5828,0,0,0,0.576,0.5761,0.5766,0.5775,0.579,0.5802,0.5822,0.583,0.5843,0.5851,0.5854,0.5851,0.5851,0.5849,0.5847,0.5848,0.5868,0.5868,0.5868,0.5732,0.5747,0.5751,0.5769,0.5778,0.5799,0.5807,0.5821,0.5834,0.5834,0.5838,0.5826,0.5824,0.5822,0.5823,0.5838,0.5838,0.5838,0.5837,0.5722,0.5725,0.5742,0.5751,0.5767,0.5775,0.5796,0.5805,0.5815,0.5824,0.5824,0.5832,0.5819,0.582,0.5836,0.5837,0.5837,0.5837,0.5837,0.5705,0.5709,0.5718,0.5733,0.5743,0.5763,0.5772,0.5786,0.58,0.5801,0.5807,0.5807,0.5809,0.5803,0.5803,0.5803,0.5802,0.5802,0.5802,0.5684,0.5695,0.57,0.5716,0.5724,0.5737,0.5759,0.5767,0.578,0.579,0.579,0.5803,0.5815,0.5818,0.5802,0.5802,0.5802,0.5802,0.5802,0.5666,0.5673,0.5681,0.5689,0.571,0.5719,0.5738,0.5754,0.5764,0.5768,0.5781,0.5788,0.5794,0.5796,0.5798,0.5777,0.5777,0.5777,0.5777,0.5652,0.5657,0.5669,0.5681,0.5694,0.5712,0.5722,0.5739,0.5758,0.5765,0.5771,0.5775,0.5776,0.5782,0.5784,0.5786,0.5763,0.5763,0.5763,0.5642,0.5649,0.5654,0.5672,0.569,0.5705,0.5715,0.5728,0.5751,0.5763,0.5771,0.5772,0.5779,0.5781,0.5791,0.5794,0.5799,0,0]},{"header":{"parameterUnit":"m.s-1","parameterCategory":1,"la1":30.2992,"la2":30.254,"lo1":-89.0895,"lo2":-89.0443,"dy":0.0025,"dx":0.0025,"nx":19,"ny":19,"refTime":"2026-03-16T03:00:00:Z","depth":0,"parameterNumber":3,"parameterNumberName":"V-component_of_WINDS"},"data":[0,0,0,-3.6624,-3.6626,-3.6711,-3.6712,-3.6817,-3.6818,0,0,0,0,0,0,0,0,0,0,0,-3.6598,-3.6599,-3.6624,-3.6626,-3.6711,-3.6712,-3.6817,-3.6818,0,0,0,0,0,0,0,0,0,0,0,-3.6598,-3.6598,-3.6599,-3.6627,-3.6711,-3.6712,-3.6817,-3.6753,0,0,0,0,0,0,0,0,0,0,-3.6671,-3.6646,-3.6598,-3.6599,-3.6627,-3.6711,-3.6712,-3.675,-3.6757,-3.6777,0,-3.6796,0,-3.6809,-3.6825,-3.6825,0,0,0,-3.6627,-3.664,-3.6664,-3.6599,-3.6628,-3.6711,-3.6673,-3.6754,-3.6762,-3.6786,-3.6797,-3.6801,-3.681,-3.6825,-3.6826,-3.6945,-3.6946,0,0,-3.6622,-3.6612,-3.6659,-3.6669,-3.6657,-3.667,-3.6676,-3.6759,-3.6769,-3.6798,-3.6804,-3.6812,-3.6826,-3.6827,-3.6945,-3.6946,0,0,0,-3.6608,-3.6609,-3.6631,-3.6665,-3.6681,-3.6673,-3.6679,-3.6766,-3.6774,-3.6805,-3.6813,-3.6827,-3.6828,-3.6944,-3.6945,-3.6965,0,0,0,-3.6605,-3.6601,-3.6629,-3.6624,-3.6679,-3.6724,-3.6684,-3.6768,-3.6778,-3.6813,-3.6827,-3.6829,-3.6944,-3.6945,-3.6963,-3.6976,0,0,0,-3.6593,-3.6599,-3.6611,-3.6623,-3.666,-3.6723,-3.6736,-3.6771,-3.6783,-3.6825,-3.6829,-3.6943,-3.6945,-3.6962,-3.6973,-3.7007,0,0,0,-3.6576,-3.6625,-3.6611,-3.667,-3.6659,-3.6735,-3.6736,-3.6793,-3.6831,-3.6827,-3.6944,-3.6945,-3.6961,-3.6972,-3.7005,-3.7035,-3.7046,0,0,-3.6632,-3.6631,-3.6666,-3.6657,-3.6734,-3.6723,-3.6802,-3.6845,-3.6856,-3.6915,-3.6918,-3.6964,-3.6973,-3.7007,-3.7108,-3.7117,0,0,0,-3.6681,-3.6706,-3.6729,-3.6766,-3.6802,-3.6835,-3.6867,-3.6883,-3.6934,-3.6885,-3.6984,-3.699,-3.701,-3.7025,-3.7032,-3.7052,-3.6951,-3.6951,-3.6951,-3.6745,-3.6761,-3.6821,-3.6848,-3.6884,-3.6919,-3.695,-3.6978,-3.6979,-3.7003,-3.7021,-3.7081,-3.7098,-3.7104,-3.7123,-3.7036,-3.7036,-3.7036,-3.7036,-3.6831,-3.6871,-3.6876,-3.6937,-3.6953,-3.7003,-3.7039,-3.7039,-3.7089,-3.7068,-3.7086,-3.7064,-3.7113,-3.7131,-3.7038,-3.7038,-3.7038,-3.7037,-3.7037,-3.6877,-3.6899,-3.692,-3.6979,-3.7023,-3.7046,-3.7096,-3.7107,-3.7117,-3.7135,-3.7157,-3.7157,-3.716,-3.7145,-3.7145,-3.7145,-3.7145,-3.7146,-3.7146,-3.6917,-3.694,-3.6981,-3.7027,-3.7054,-3.7092,-3.7129,-3.7156,-3.7189,-3.7194,-3.7194,-3.7195,-3.7114,-3.7095,-3.7149,-3.7149,-3.7148,-3.7148,-3.7148,-3.7001,-3.6985,-3.7048,-3.7076,-3.7132,-3.7176,-3.7191,-3.7246,-3.727,-3.7294,-3.7292,-3.723,-3.7229,-3.7223,-3.7207,-3.7287,-3.7287,-3.7287,-3.7287,-3.7041,-3.7043,-3.7112,-3.7157,-3.7202,-3.7223,-3.7295,-3.7326,-3.7354,-3.737,-3.736,-3.7339,-3.7333,-3.7336,-3.7328,-3.7313,-3.7418,-3.7418,-3.7418,-3.7095,-3.7103,-3.7162,-3.7192,-3.7238,-3.7276,-3.7345,-3.7396,-3.7424,-3.7424,-3.7383,-3.7378,-3.7345,-3.7333,-3.7332,-3.7319,-3.7293,0,0]}]]